Starlink 32028

operational
NORAD ID: 60095 Int'l Des: 2024-117 Owner: SPXS Country: US Constellation: starlink
LEOCIRCULAR

Starlink 32028について

説明を読み込み中...

リアルタイム位置

3D地球を読み込み中...

次回通過

高度履歴

Altitude vs Time

uPlot chart will show altitude changes over time

軌道要素

1 60095U 24117E 25350.91941388 -.00000067 00000-0 98623-5 0 9990
2 60095 53.1613 61.6073 0001333 94.8623 265.2530 15.30194569 84217
Epoch: Dec 16, 2025 • Age: 7 hours

現在のステータス

高度 479.4 km
速度 7.63 km/s
衛星直下点 46.61°N, 29.68°E
打ち上げ日 Jun 23, 2024
運用期間 1.4 years
タイプ internet

技術仕様

分類 Payload
質量 730.00 kg
乾燥質量 700.00 kg
総質量 730.00 kg
長さ 0.30 m
直径 4.10 m
スパン 29.00 m
形状 Box + pan
製造者 SPXS
バスタイプ Starlink V2M
フェーズステータス In Orbit
所有者/国 SPXS/US

大規模コンステレーション

Loading constellations...